Weather History for KGUS - June, 2013

Change the Weather History Date:

Saturday, June 29, 2013

  Actual Average Record
Temperature  
Mean Temperature 66 °F -  
Max Temperature 71 °F 81 °F 93 °F (2012)
Min Temperature 60 °F 64 °F 55 °F (2006)
Growing Degree Days 16 (Base 50)    
Moisture  
Dew Point 65 °F    
Average Humidity 97    
Maximum Humidity 100    
Minimum Humidity 82    
Precipitation  
Precipitation 0.29 in - - ()
Sea Level Pressure  
Sea Level Pressure 29.62 in    
Wind  
Wind Speed 4 mph (West)    
Max Wind Speed 12 mph    
Max Gust Speed -    
Visibility 6 miles    
Events Fog , Rain , Thunderstorm    
Averages and records for this station are not official NWS values.
T = Trace of Precipitation, MM = Missing Value Source: NWS Daily Summary

Daily Weather History Graph

Daily Weather History Graph

Search for Another Location

Airport or City:

Trip Planner

Search our weather history database for the weather conditions in past years. The results will help you decide how hot, cold, wet, or windy it might be!

Date:

Astronomy

Jun. 29, 2013 Rise Set
Actual Time 6:16 AM EDT 9:19 PM EDT
Civil Twilight 5:43 AM EDT 9:52 PM EDT
Nautical Twilight 5:00 AM EDT 10:35 PM EDT
Astronomical Twilight 4:11 AM EDT 11:24 PM EDT
Moon 12:46 AM EDT (6/29) 1:29 PM EDT (6/29)
Length of Visible Light 16h 09m
Length of Day
15h 03m
Waning Gibbous, 56% of the Moon is Illuminated
Jun 29
Waning Gibbous
Jun 30
Last Quarter
Jul 8
New
Jul 15
First Quarter
Jul 22
Full

Hourly Weather History & Observations

Time (EDT) Temp. Dew Point Humidity Pressure Visibility Wind Dir Wind Speed Gust Speed Precip Events Conditions
12:58 AM 64.6 °F 64.6 °F 100% 29.60 in 10.0 mi WSW 6.9 mph - N/A   Scattered Clouds
1:58 AM 63.7 °F 63.7 °F 100% 29.59 in 10.0 mi West 4.6 mph - N/A   Clear
2:58 AM 62.8 °F 62.8 °F 100% 29.59 in 10.0 mi WSW 3.5 mph - N/A   Clear
3:58 AM 62.6 °F 62.6 °F 100% 29.59 in 10.0 mi West 3.5 mph - N/A   Clear
4:18 AM 62.6 °F 62.6 °F 100% 29.58 in 7.0 mi WNW 1.2 mph - N/A   Clear
4:38 AM 62.6 °F 62.6 °F 100% 29.58 in 4.0 mi WSW 2.3 mph - N/A   Clear
4:43 AM 60.8 °F 60.8 °F 100% 29.58 in 1.5 mi West 2.3 mph - N/A   Clear
4:48 AM 60.8 °F 60.8 °F 100% 29.58 in 1.2 mi West 2.3 mph - N/A   Clear
4:53 AM 60.8 °F 60.8 °F 100% 29.58 in 2.0 mi WSW 3.5 mph - N/A   Clear
4:58 AM 61.3 °F 61.3 °F 100% 29.58 in 3.0 mi WSW 3.5 mph - N/A   Clear
5:08 AM 60.8 °F 60.8 °F 100% 29.58 in 4.0 mi WSW 3.5 mph - N/A   Clear
5:13 AM 60.8 °F 60.8 °F 100% 29.58 in 3.0 mi WSW 4.6 mph - N/A   Clear
5:18 AM 60.8 °F 60.8 °F 100% 29.58 in 1.5 mi WSW 2.3 mph - N/A   Clear
5:23 AM 60.8 °F 60.8 °F 100% 29.58 in 1.0 mi Calm Calm - N/A   Clear
5:33 AM 60.8 °F 60.8 °F 100% 29.59 in 1.2 mi Calm Calm - N/A   Clear
5:38 AM 60.8 °F 60.8 °F 100% 29.59 in 2.5 mi West 1.2 mph - N/A   Clear
5:43 AM 60.8 °F 60.8 °F 100% 29.59 in 5.0 mi West 2.3 mph - N/A   Clear
5:48 AM 60.8 °F 60.8 °F 100% 29.59 in 2.5 mi WNW 3.5 mph - N/A   Clear
5:49 AM 60.8 °F 60.8 °F 100% 29.59 in 2.5 mi WNW 3.5 mph - N/A   Partly Cloudy
5:54 AM 60.8 °F 60.8 °F 100% 29.59 in 2.0 mi West 4.6 mph - N/A   Partly Cloudy
5:58 AM 61.3 °F 61.3 °F 100% 29.59 in 2.0 mi West 4.6 mph - N/A   Scattered Clouds
6:03 AM 60.8 °F 60.8 °F 100% 29.59 in 3.0 mi West 3.5 mph - N/A   Mostly Cloudy
6:08 AM 60.8 °F 60.8 °F 100% 29.59 in 2.0 mi West 3.5 mph - N/A   Mostly Cloudy
6:13 AM 60.8 °F 60.8 °F 100% 29.59 in 0.8 mi WSW 3.5 mph - N/A   Mist
6:18 AM 62.6 °F 62.6 °F 100% 29.59 in 0.2 mi WSW 3.5 mph - N/A Fog Fog
6:23 AM 62.6 °F 62.6 °F 100% 29.59 in 0.2 mi WSW 3.5 mph - N/A Fog Fog
6:58 AM 62.8 °F 62.8 °F 100% 29.60 in 0.1 mi West 3.5 mph - N/A Fog Fog
7:23 AM 62.6 °F 62.6 °F 100% 29.60 in 0.2 mi West 3.5 mph - N/A Fog Fog
7:28 AM 62.6 °F 62.6 °F 100% 29.60 in 0.4 mi NW 1.2 mph - N/A Fog Fog
7:33 AM 62.6 °F 62.6 °F 100% 29.60 in 0.5 mi Calm Calm - N/A Fog Fog
7:43 AM 64.4 °F 64.4 °F 100% 29.60 in 0.8 mi West 4.6 mph - N/A   Overcast
7:48 AM 64.4 °F 64.4 °F 100% 29.60 in 1.5 mi West 4.6 mph - N/A   Overcast
7:58 AM 64.4 °F 64.4 °F 100% 29.60 in 1.8 mi West 4.6 mph - N/A   Overcast
8:13 AM 64.4 °F 64.4 °F 100% 29.61 in 4.0 mi West 4.6 mph - N/A   Overcast
8:23 AM 64.4 °F 64.4 °F 100% 29.61 in 5.0 mi WNW 4.6 mph - N/A   Overcast
8:33 AM 64.4 °F 64.4 °F 100% 29.61 in 5.0 mi WNW 4.6 mph - N/A   Overcast
8:43 AM 64.4 °F 64.4 °F 100% 29.61 in 5.0 mi West 4.6 mph - N/A   Overcast
8:58 AM 65.1 °F 65.1 °F 100% 29.61 in 5.0 mi West 4.6 mph - N/A   Overcast
9:58 AM 67.3 °F 65.8 °F 95% 29.61 in 6.0 mi Calm Calm - N/A   Mostly Cloudy
10:35 AM 68.0 °F 64.4 °F 88% 29.62 in 6.0 mi WNW 3.5 mph - N/A   Mostly Cloudy
10:58 AM 68.9 °F 65.3 °F 88% 29.61 in 10.0 mi WNW 3.5 mph - N/A   Mostly Cloudy
11:18 AM 69.8 °F 66.2 °F 88% 29.61 in 10.0 mi West 3.5 mph - N/A   Mostly Cloudy
11:51 AM 68.0 °F 68.0 °F 100% 29.61 in 9.0 mi SW 6.9 mph - N/A   Light Drizzle
11:58 AM 68.4 °F 67.3 °F 96% 29.61 in 8.0 mi SW 5.8 mph - 0.00 in Rain Light Rain
12:07 PM 68.0 °F 68.0 °F 100% 29.62 in 9.0 mi SW 4.6 mph - N/A   Overcast
12:14 PM 68.0 °F 68.0 °F 100% 29.62 in 7.0 mi SW 4.6 mph - N/A Rain Light Rain
12:32 PM 68.0 °F 66.2 °F 94% 29.62 in 10.0 mi SW 4.6 mph - N/A   Mostly Cloudy
12:37 PM 68.0 °F 66.2 °F 94% 29.62 in 10.0 mi Variable 2.3 mph - N/A   Mostly Cloudy
12:58 PM 69.3 °F 67.3 °F 93% 29.62 in 10.0 mi South 5.8 mph - 0.00 in   Mostly Cloudy
1:38 PM 69.8 °F 66.2 °F 88% 29.61 in 10.0 mi West 3.5 mph - N/A Rain Light Rain
1:42 PM 69.8 °F 66.2 °F 88% 29.61 in 9.0 mi West 4.6 mph - N/A Rain Light Rain
1:59 PM 70.0 °F 68.2 °F 94% 29.61 in 10.0 mi WSW 4.6 mph - 0.00 in   Mostly Cloudy
2:24 PM 71.6 °F 68.0 °F 88% 29.62 in 10.0 mi WSW 8.1 mph - N/A   Mostly Cloudy
2:29 PM 71.6 °F 68.0 °F 88% 29.62 in 10.0 mi SW 6.9 mph - N/A   Mostly Cloudy
2:39 PM 69.8 °F 68.0 °F 94% 29.62 in 10.0 mi WSW 9.2 mph - N/A   Overcast
2:46 PM 69.8 °F 68.0 °F 94% 29.62 in 8.0 mi WNW 11.5 mph - N/A Rain Light Rain
2:47 PM 69.8 °F 68.0 °F 94% 29.62 in 6.0 mi WNW 10.4 mph - N/A Rain Light Rain
2:52 PM 68.0 °F 66.2 °F 94% 29.62 in 2.5 mi NW 10.4 mph - N/A Rain Heavy Rain
2:57 PM 68.0 °F 64.4 °F 88% 29.63 in 1.8 mi WNW 6.9 mph - N/A Rain Heavy Rain
2:58 PM 68.0 °F 64.4 °F 88% 29.63 in 1.8 mi NW 6.9 mph - 0.07 in Rain Heavy Rain
3:03 PM 68.0 °F 64.4 °F 88% 29.63 in 2.0 mi WNW 5.8 mph - N/A Rain Heavy Rain
3:08 PM 68.0 °F 62.6 °F 83% 29.63 in 1.8 mi West 2.3 mph - N/A Rain Heavy Rain
3:13 PM 68.0 °F 64.4 °F 88% 29.62 in 2.0 mi West 3.5 mph - N/A Rain Rain
3:18 PM 68.0 °F 68.0 °F 100% 29.62 in 4.0 mi WSW 5.8 mph - N/A Rain Rain
3:23 PM 68.0 °F 68.0 °F 100% 29.63 in 5.0 mi SW 5.8 mph - N/A Rain Light Rain
3:38 PM 68.0 °F 68.0 °F 100% 29.63 in 6.0 mi WSW 9.2 mph - N/A Rain , Thunderstorm Light Rain
3:42 PM 68.0 °F 68.0 °F 100% 29.62 in 6.0 mi WSW 10.4 mph - N/A Rain , Thunderstorm Light Thunderstorms and Rain
3:47 PM 68.0 °F 68.0 °F 100% 29.62 in 6.0 mi SW 10.4 mph - N/A Rain , Thunderstorm Light Thunderstorms and Rain
3:57 PM 68.0 °F 68.0 °F 100% 29.63 in 6.0 mi SW 6.9 mph - N/A Rain , Thunderstorm Light Rain
3:58 PM 68.4 °F 68.4 °F 100% 29.63 in 6.0 mi SW 6.9 mph - 0.13 in Rain , Thunderstorm Light Rain
4:08 PM 68.0 °F 68.0 °F 100% 29.63 in 6.0 mi WSW 5.8 mph - N/A Rain Light Rain
4:43 PM 68.0 °F 68.0 °F 100% 29.62 in 6.0 mi NNW 3.5 mph - N/A Rain Light Rain
4:48 PM 68.0 °F 68.0 °F 100% 29.62 in 5.0 mi North 4.6 mph - N/A Rain Light Rain
4:49 PM 68.0 °F 68.0 °F 100% 29.62 in 6.0 mi North 4.6 mph - N/A Rain Light Rain
4:58 PM 68.5 °F 68.2 °F 99% 29.62 in 7.0 mi North 5.8 mph - 0.02 in Rain Light Rain
5:58 PM 67.6 °F 64.4 °F 89% 29.63 in 10.0 mi North 4.6 mph - 0.01 in   Light Drizzle
6:16 PM 68.0 °F 64.4 °F 88% 29.62 in 10.0 mi NNW 2.3 mph - N/A   Scattered Clouds
6:58 PM 68.4 °F 62.8 °F 82% 29.64 in 10.0 mi WSW 6.9 mph - 0.00 in   Overcast
7:23 PM 66.2 °F 64.4 °F 94% 29.65 in 10.0 mi NW 5.8 mph - N/A   Overcast
7:43 PM 66.2 °F 64.4 °F 94% 29.65 in 10.0 mi NNW 8.1 mph - N/A   Overcast
7:55 PM 66.2 °F 64.4 °F 94% 29.66 in 10.0 mi North 6.9 mph - N/A Rain Light Rain
7:58 PM 65.5 °F 64.2 °F 96% 29.66 in 10.0 mi North 5.8 mph - 0.00 in Rain Light Rain
8:18 PM 64.4 °F 64.4 °F 100% 29.67 in 10.0 mi NW 6.9 mph - N/A Rain Light Rain
8:28 PM 64.4 °F 64.4 °F 100% 29.67 in 4.0 mi NW 4.6 mph - N/A Rain Light Rain
8:37 PM 64.4 °F 64.4 °F 100% 29.68 in 6.0 mi West 6.9 mph - N/A   Overcast
8:58 PM 64.6 °F 64.6 °F 100% 29.68 in 10.0 mi WNW 5.8 mph - 0.05 in   Overcast
9:36 PM 64.4 °F 64.4 °F 100% 29.67 in 10.0 mi NW 8.1 mph - N/A   Light Drizzle
9:58 PM 64.0 °F 64.0 °F 100% 29.67 in 10.0 mi NNW 8.1 mph - 0.00 in   Light Drizzle
10:45 PM 64.4 °F 64.4 °F 100% 29.70 in 9.0 mi North 4.6 mph - N/A   Overcast
10:58 PM 64.2 °F 64.2 °F 100% 29.70 in 10.0 mi North 5.8 mph - 0.01 in   Overcast
11:23 PM 64.4 °F 64.4 °F 100% 29.70 in 10.0 mi North 4.6 mph - N/A   Overcast
11:58 PM 64.2 °F 64.2 °F 100% 29.69 in 10.0 mi North 6.9 mph - N/A   Overcast